Weather History for Minot AFB, ND

Change the Weather History Date:

Sunday, September 1, 2013

  Actual Average Record
Temperature  
Mean Temperature 61 °F -  
Max Temperature 72 °F 76 °F 95 °F (2012)
Min Temperature 50 °F 50 °F 39 °F (2006)
Degree Days  
Heating Degree Days 4    
Growing Degree Days 11 (Base 50)    
Moisture  
Dew Point 52 °F    
Average Humidity 74    
Maximum Humidity 100    
Minimum Humidity 43    
Precipitation  
Precipitation 0.00 in - - ()
Sea Level Pressure  
Sea Level Pressure 30.07 in    
Wind  
Wind Speed 8 mph (NNE)    
Max Wind Speed 13 mph    
Max Gust Speed -    
Visibility 10 miles    
Events      
Averages and records for this station are not official NWS values.
T = Trace of Precipitation, MM = Missing Value Source: NWS Daily Summary

Daily Weather History Graph

Daily Weather History Graph

Search for Another Location

Airport:

Trip Planner

Search our weather history database for the weather conditions in past years. The results will help you decide how hot, cold, wet, or windy it might be!

Date:

Astronomy

Sep. 01, 2013 Rise Set
Actual Time 7:03 AM CDT 8:26 PM CDT
Civil Twilight 6:30 AM CDT 8:58 PM CDT
Nautical Twilight 5:51 AM CDT 9:37 PM CDT
Astronomical Twilight 5:08 AM CDT 10:20 PM CDT
Moon 3:15 AM CDT (9/1) 6:14 PM CDT (9/1)
Length of Visible Light 14h 27m
Length of Day
13h 23m
Waning Crescent, 13% of the Moon is Illuminated
Sep 1
Waning Crescent
Sep 5
New
Sep 12
First Quarter
Sep 19
Full
Sep 26
Last Quarter

Hourly Weather History & Observations

Time (CDT) Temp. Dew Point Humidity Pressure Visibility Wind Dir Wind Speed Gust Speed Precip Events Conditions
12:58 AM 60.6 °F 55.8 °F 84% 29.98 in 10.0 mi NW 12.7 mph - N/A   Partly Cloudy
1:58 AM 60.4 °F 57.0 °F 88% 29.99 in 10.0 mi North 10.4 mph - N/A   Clear
2:58 AM 59.7 °F 57.9 °F 94% 30.00 in 10.0 mi North 10.4 mph - N/A   Scattered Clouds
3:58 AM 58.3 °F 56.3 °F 93% 30.01 in 10.0 mi NNE 4.6 mph - N/A   Clear
4:58 AM 52.3 °F 51.8 °F 98% 30.03 in 10.0 mi NW 6.9 mph - N/A   Clear
5:48 AM 55.4 °F 55.4 °F 100% 30.04 in 10.0 mi NNW 6.9 mph - N/A   Mostly Cloudy
5:58 AM 56.5 °F 56.1 °F 99% 30.05 in 10.0 mi NNW 6.9 mph - N/A   Mostly Cloudy
6:28 AM 57.2 °F 55.4 °F 94% 30.05 in 10.0 mi NNE 8.1 mph - N/A   Overcast
6:58 AM 57.0 °F 55.0 °F 93% 30.07 in 10.0 mi North 6.9 mph - N/A   Overcast
7:58 AM 57.6 °F 55.2 °F 92% 30.08 in 10.0 mi NNE 6.9 mph - N/A   Overcast
8:33 AM 57.2 °F 53.6 °F 88% 30.09 in 10.0 mi North 8.1 mph - N/A   Overcast
8:38 AM 57.2 °F 53.6 °F 88% 30.09 in 10.0 mi NNE 8.1 mph - N/A   Overcast
8:58 AM 57.9 °F 52.9 °F 83% 30.11 in 10.0 mi NNE 8.1 mph - N/A   Overcast
9:58 AM 58.6 °F 50.9 °F 75% 30.12 in 10.0 mi NNE 6.9 mph - N/A   Overcast
10:08 AM 59.0 °F 50.0 °F 72% 30.10 in 10.0 mi North 6.9 mph - N/A   Overcast
10:58 AM 60.4 °F 50.7 °F 70% 30.13 in 10.0 mi North 10.4 mph - N/A   Mostly Cloudy
11:58 AM 63.0 °F 50.4 °F 63% 30.13 in 10.0 mi North 8.1 mph - N/A   Overcast
12:58 PM 64.9 °F 49.1 °F 56% 30.12 in 10.0 mi North 8.1 mph - N/A   Overcast
1:58 PM 68.4 °F 50.4 °F 53% 30.10 in 10.0 mi NE 10.4 mph - N/A   Clear
2:58 PM 69.4 °F 50.5 °F 51% 30.09 in 10.0 mi NNE 8.1 mph - N/A   Partly Cloudy
3:58 PM 70.7 °F 50.2 °F 48% 30.09 in 10.0 mi North 8.1 mph - N/A   Mostly Cloudy
4:58 PM 70.7 °F 50.0 °F 48% 30.09 in 10.0 mi North 6.9 mph - N/A   Mostly Cloudy
5:58 PM 69.6 °F 48.9 °F 48% 30.08 in 10.0 mi NE 5.8 mph - N/A   Mostly Cloudy
6:58 PM 70.3 °F 48.9 °F 47% 30.07 in 10.0 mi NNE 3.5 mph - N/A   Clear
7:58 PM 68.2 °F 45.0 °F 43% 30.07 in 10.0 mi ENE 5.8 mph - N/A   Clear
8:58 PM 64.4 °F 45.1 °F 50% 30.08 in 10.0 mi ENE 4.6 mph - N/A   Clear
9:58 PM 58.6 °F 46.4 °F 64% 30.08 in 10.0 mi ESE 4.6 mph - N/A   Clear
10:58 PM 57.7 °F 45.9 °F 65% 30.08 in 10.0 mi SE 2.3 mph - N/A   Clear
11:58 PM 50.0 °F 45.5 °F 85% 30.09 in 10.0 mi SSE 1.2 mph - N/A   Clear